RH
47 44 44 47 48 49 50 50 49 46 44 42 40 39 40 40 40 40 41 38 37 36 34 31 28 31 32 32 31 29 28 27 25 22 20 18 18 19 21 21 21 21 21 22 24 24 22 22 20 17 18 21 24 26 28 28 27 25 24 22 20 19 18 17 16 17 17 18 18 18 18 18 16 15 14 13 13 14 12 12 14 14 14 15 16
50 47 46 47 47 48 48 50 49 48 47 46 42 40 41 42 43 43 43 41 40 38 35 31 28 29 29 28 28 26 26 24 23 21 19 18 17 19 20 20 21 22 22 21 20 20 19 19 18 16 18 20 23 24 27 28 27 25 23 22 20 20 19 17 16 16 17 18 18 18 18 18 17 15 14 14 15 16 14 13 13 14 14 14 14
51 48 46 46 46 47 49 51 52 52 50 48 45 42 40 43 45 43 43 43 42 40 36 32 30 29 28 26 26 25 24 23 21 20 19 18 20 21 19 19 20 22 23 22 20 19 18 17 17 17 18 20 23 25 27 28 27 25 23 22 21 20 19 18 17 16 17 18 18 19 19 18 17 16 15 14 15 16 17 14 14 14 14 14 14
49 47 46 46 47 49 51 54 55 54 52 49 47 45 42 42 44 42 43 44 42 42 38 34 33 31 29 29 28 26 25 24 23 21 21 21 21 21 19 17 18 20 22 22 22 20 17 16 16 17 18 21 23 25 27 28 27 25 23 23 22 20 20 19 17 17 17 18 19 19 19 18 18 16 15 14 15 16 17 16 15 15 14 15 14
48 47 47 48 48 51 54 55 54 54 51 49 51 50 46 44 42 41 43 44 43 42 39 36 34 32 31 30 29 29 28 29 30 28 29 28 25 22 20 18 18 21 23 25 25 22 20 16 15 17 18 21 23 26 26 27 27 25 24 23 23 21 20 20 18 17 16 17 18 19 20 19 18 17 15 15 15 15 17 17 16 16 16 16 15
48 47 46 46 48 51 54 56 54 53 51 50 54 55 51 48 43 40 43 45 44 43 40 37 35 33 33 31 31 34 35 35 36 35 34 33 31 28 24 21 19 22 26 28 30 29 27 21 16 17 18 20 23 26 27 26 27 26 24 24 23 21 21 21 19 18 17 17 18 19 20 20 19 18 16 14 14 15 16 17 16 16 17 17 16
49 47 45 45 47 49 52 54 53 52 52 51 53 57 57 52 47 43 43 45 44 43 42 40 37 36 36 33 35 39 38 37 37 37 35 33 33 33 29 24 20 21 24 25 29 32 32 27 19 18 19 21 23 26 28 26 27 26 24 25 24 22 21 22 20 19 18 18 18 19 20 20 19 18 17 15 14 15 16 17 16 16 16 17 17
48 46 46 46 49 50 52 52 50 51 54 53 51 55 59 56 52 48 45 45 45 45 44 42 39 39 41 38 39 41 39 38 38 38 37 35 34 34 31 25 20 20 21 21 26 31 33 33 24 18 19 22 24 27 29 28 28 27 25 25 25 23 22 23 22 20 19 19 19 19 20 21 20 19 18 16 15 15 15 16 16 17 16 16 17
47 45 45 47 49 50 53 52 51 52 54 57 55 55 59 58 58 54 47 46 47 46 46 45 42 40 42 41 42 42 39 39 37 38 37 36 35 33 30 25 21 19 18 19 23 27 29 32 25 17 20 26 29 29 29 29 29 28 25 24 26 25 23 24 23 21 20 20 20 20 21 21 21 20 18 17 15 15 15 16 17 17 17 16 16
48 45 44 45 46 49 53 55 56 53 57 66 63 58 59 59 63 62 53 49 49 49 48 47 45 43 42 43 43 42 40 39 37 36 35 34 33 31 30 27 22 19 17 17 19 22 24 24 22 18 20 28 31 28 27 30 31 30 26 24 27 27 25 27 26 24 22 21 20 20 21 22 22 21 20 19 17 16 15 16 16 17 17 16 16
46 44 43 43 45 48 51 56 59 55 60 71 69 65 66 62 64 67 61 54 53 52 50 49 49 46 43 43 44 41 39 38 37 35 34 33 33 33 33 29 25 21 18 16 16 20 22 21 21 20 20 24 25 26 29 32 33 33 30 26 28 29 28 28 28 27 25 22 21 21 21 21 22 23 21 21 19 17 16 16 16 17 17 17 17
43 43 43 43 46 49 52 56 61 59 60 67 70 72 74 68 65 68 66 59 57 55 53 51 49 49 47 46 45 41 38 37 37 36 35 35 35 35 34 31 29 26 22 19 16 18 22 19 19 21 21 21 22 27 32 34 36 36 34 31 31 32 30 29 29 28 27 24 23 22 21 21 22 23 23 22 21 19 17 16 16 17 18 18 17
43 43 43 44 47 50 54 58 64 64 62 64 67 72 78 76 70 70 69 62 59 58 56 53 51 52 52 50 47 42 40 39 39 39 38 39 38 37 35 33 31 30 26 23 19 17 20 21 18 20 23 22 23 27 33 36 38 39 38 35 34 34 31 30 30 29 28 26 25 24 22 21 22 23 23 23 23 21 19 18 17 17 18 18 18
45 44 44 46 49 52 56 61 67 68 69 72 73 76 82 81 74 72 70 65 62 60 57 54 53 54 54 53 48 44 43 43 43 42 42 43 42 39 37 35 33 31 29 27 24 19 18 20 19 19 23 26 26 29 34 38 40 41 42 40 38 37 34 31 30 30 30 28 27 25 23 21 22 23 23 23 23 22 21 19 18 18 18 19 19
47 45 47 51 52 54 59 66 72 73 75 80 84 85 85 80 74 72 70 67 64 61 58 56 57 56 55 52 50 49 49 49 48 46 46 46 44 41 38 37 34 31 30 29 27 23 19 19 19 19 23 28 30 33 36 39 42 44 45 43 40 39 36 32 31 31 30 30 29 27 24 22 23 24 24 24 24 23 22 20 19 19 18 18 19
47 46 50 53 54 56 59 67 69 70 73 76 83 84 81 75 71 71 69 67 64 61 60 60 60 58 56 54 55 55 54 53 52 51 49 49 45 41 38 36 34 32 31 30 29 27 23 21 20 18 23 30 34 36 38 40 43 45 46 45 42 40 38 35 32 31 31 29 29 28 27 25 24 24 25 24 24 24 23 22 20 19 19 19 19
45 47 51 52 54 56 55 58 59 66 74 74 76 76 76 75 72 72 70 68 65 64 64 65 64 61 59 58 59 58 55 53 51 50 50 48 43 40 38 36 35 34 34 33 32 30 27 25 22 20 22 30 36 39 40 41 43 45 46 46 43 41 38 36 34 32 31 31 30 29 30 28 26 25 25 25 25 24 24 23 21 20 19 18 19
47 49 51 51 51 52 52 53 55 66 76 75 74 73 75 75 74 75 73 70 67 68 69 67 65 61 60 59 58 56 53 51 48 48 47 44 42 40 40 38 38 38 37 36 34 33 30 28 26 23 23 29 36 39 41 42 44 44 46 47 45 42 40 37 35 32 32 32 31 30 31 31 28 26 26 26 25 25 24 24 22 21 20 20 19
47 48 50 51 50 50 51 52 55 66 75 77 78 77 76 75 74 74 73 72 71 72 70 65 63 59 56 55 54 53 50 48 47 46 45 43 43 43 43 41 41 42 42 40 38 36 34 32 30 28 25 28 35 39 40 42 43 44 46 47 46 44 42 39 36 34 32 32 32 32 31 31 31 28 27 26 26 26 25 25 24 22 21 20 19
45 49 52 53 53 53 53 52 54 65 74 75 75 74 75 74 72 73 73 71 70 68 64 60 57 55 53 51 50 49 48 47 47 47 45 44 45 47 47 46 45 46 46 45 42 39 37 35 33 31 29 30 34 39 40 41 42 43 44 47 47 45 44 41 38 35 33 33 33 33 32 31 30 29 27 26 26 27 26 25 25 23 22 21 20
45 50 54 55 54 53 54 53 53 61 69 70 70 68 71 73 70 71 71 68 65 62 58 56 54 53 52 49 48 47 47 47 49 49 47 47 49 51 52 51 50 50 49 49 46 41 39 38 36 35 34 34 36 39 40 41 42 42 43 46 48 48 45 43 38 36 34 33 33 34 33 31 30 29 27 26 26 26 26 26 26 25 24 22 21
46 51 55 56 54 53 55 55 55 60 64 65 66 65 67 70 69 69 69 65 62 59 57 56 54 53 51 49 48 48 47 47 48 49 49 50 52 55 56 56 55 53 51 51 50 45 42 41 40 38 37 39 40 41 41 42 43 42 43 44 47 48 46 44 40 37 35 34 33 34 35 33 31 29 27 26 26 26 26 26 27 26 25 23 22
48 51 55 55 54 54 54 56 58 60 61 61 64 65 65 69 71 69 67 64 63 61 58 57 56 55 53 51 49 48 48 48 48 48 50 51 54 57 59 59 59 57 54 52 52 49 45 43 42 39 38 39 42 46 45 44 45 44 44 43 44 46 46 44 42 39 36 34 34 35 36 35 34 30 26 26 26 26 26 26 27 27 27 25 23
49 52 55 55 54 53 53 55 56 58 59 60 64 66 67 69 71 70 67 65 64 62 60 58 57 55 54 52 50 50 51 51 51 50 52 54 56 58 60 61 62 61 57 54 53 52 48 45 43 42 40 39 41 45 49 49 47 46 46 45 43 43 44 44 42 40 37 36 34 35 36 37 36 32 26 24 25 26 26 26 26 27 28 26 24
49 51 55 55 55 53 52 52 53 56 57 60 64 68 70 70 68 68 66 66 65 63 61 60 59 56 54 53 52 53 53 54 55 55 57 57 58 59 61 64 65 65 62 58 57 56 54 50 47 46 45 44 42 43 47 50 49 47 48 48 46 43 42 43 42 40 38 36 34 34 36 37 37 34 29 24 24 25 26 26 27 27 28 27 25
47 50 54 57 58 54 52 51 53 56 57 61 65 67 69 68 67 67 67 66 64 63 62 61 60 58 56 55 54 54 55 55 57 58 59 59 59 59 61 66 68 68 67 65 63 61 60 57 52 50 50 51 46 42 44 47 49 48 46 48 50 48 43 41 41 41 39 37 35 34 36 37 37 35 30 25 24 24 25 26 26 27 27 27 26
49 53 56 59 62 57 54 53 53 57 61 65 67 68 68 68 69 68 67 66 64 62 61 59 57 57 56 55 54 54 54 55 56 58 57 58 58 58 61 66 70 71 70 70 69 67 66 63 58 54 55 56 49 44 43 43 45 47 45 45 48 51 48 43 40 39 39 38 37 36 37 37 37 36 31 26 24 24 24 25 26 26 27 27 26
52 55 57 62 64 61 59 56 56 61 64 66 69 70 71 71 71 69 67 65 61 59 57 54 53 54 54 52 51 51 51 51 51 52 53 54 55 57 61 66 68 71 74 75 74 72 70 68 64 61 63 62 56 55 52 46 44 44 44 44 45 47 48 46 42 39 38 37 37 38 38 38 39 37 32 27 26 24 23 24 24 25 26 26 26
55 56 58 61 66 65 64 61 62 64 63 67 71 71 70 70 68 66 62 59 56 55 53 53 52 50 50 49 47 47 48 47 47 49 51 51 52 55 59 64 65 70 77 79 77 76 73 73 71 70 71 68 64 64 64 58 53 47 44 44 45 45 45 44 42 40 39 38 36 37 36 37 39 39 35 30 27 25 23 22 22 23 24 25 25
56 58 60 61 65 68 67 65 65 64 62 64 65 64 64 64 62 60 57 55 53 53 52 52 51 48 48 47 45 45 45 44 44 47 50 50 50 53 58 62 65 70 76 76 77 77 76 77 77 76 76 74 70 69 70 68 63 57 51 47 47 46 44 42 42 41 41 40 39 37 36 36 37 37 34 30 28 26 24 22 21 21 22 22 23
58 61 63 59 61 67 67 66 63 61 60 60 59 61 61 60 58 55 53 52 50 51 51 49 48 47 46 45 44 44 44 44 45 47 49 51 50 53 60 63 65 70 72 72 74 75 75 76 76 76 77 76 73 72 72 73 72 67 61 56 52 49 46 43 42 44 43 43 41 40 39 38 38 35 31 29 28 26 25 24 22 21 21 21 21
66 68 67 60 60 67 68 65 60 58 59 57 57 58 56 55 55 53 51 47 45 46 48 47 44 44 43 42 43 44 44 45 47 49 50 53 52 55 62 64 64 67 69 72 74 75 74 74 73 73 73 72 73 73 73 74 76 75 70 64 61 58 54 48 46 47 46 46 45 44 42 43 43 38 33 29 26 25 24 25 24 22 20 20 22
75 72 69 64 63 68 68 64 59 57 55 53 53 52 50 52 55 53 48 43 41 42 42 42 41 41 40 40 42 43 43 44 46 48 50 54 56 59 65 66 66 68 70 72 75 76 76 75 75 73 71 70 72 73 72 72 74 75 74 71 68 66 62 57 53 52 51 51 51 50 47 47 47 45 41 34 28 27 26 25 24 23 21 20 21
79 73 68 65 66 67 67 64 59 56 55 55 56 51 51 55 53 47 42 40 38 37 37 37 37 38 39 40 42 41 42 45 45 46 50 54 57 61 66 68 68 70 71 72 74 76 76 76 75 74 73 73 73 74 73 72 73 73 73 72 70 70 67 63 60 59 58 57 55 53 51 49 49 49 49 44 37 35 35 31 28 26 24 23 23
80 76 71 67 67 67 65 63 60 60 60 58 53 49 51 55 50 44 42 40 38 36 34 32 33 34 35 37 38 38 40 42 45 45 48 53 56 59 63 65 66 68 69 69 70 73 74 73 71 70 71 71 72 73 71 71 72 73 73 73 74 76 73 67 65 65 65 64 62 59 56 53 52 51 53 53 49 47 46 44 38 33 28 25 26
79 76 75 70 67 63 61 61 61 63 61 54 50 48 48 49 48 46 44 40 37 34 31 30 29 30 32 34 35 36 37 40 42 42 45 50 54 55 58 59 61 63 64 63 64 67 68 68 66 65 66 67 67 66 67 68 71 73 75 78 80 81 79 75 74 74 73 70 69 67 64 60 58 56 55 56 54 52 54 54 51 46 38 32 30
75 75 77 73 68 60 57 63 65 62 57 52 51 50 49 50 49 46 42 39 35 31 29 28 26 26 29 31 31 32 32 35 38 39 42 48 51 53 54 55 55 55 55 55 56 59 60 60 60 60 60 61 60 62 65 68 70 74 78 79 80 81 82 81 81 79 76 74 71 71 71 69 67 63 60 60 59 55 54 58 60 58 52 43 36
70 73 76 76 73 65 59 64 62 58 56 54 53 53 53 52 48 44 40 36 32 29 27 27 25 24 25 27 28 28 29 31 33 35 39 43 47 50 52 53 53 51 50 49 51 54 55 55 55 55 56 56 57 59 63 67 69 73 77 77 78 81 84 84 83 80 77 76 74 72 72 71 70 67 63 63 66 65 59 58 63 67 65 57 46
66 68 72 76 76 69 63 64 63 61 60 57 54 54 51 48 45 41 37 32 29 27 26 26 25 24 23 23 24 25 27 29 30 32 35 40 44 47 48 48 48 48 48 49 51 53 54 54 54 54 54 55 56 58 62 67 70 72 73 74 76 78 80 81 81 80 77 75 75 73 72 71 71 69 67 65 67 71 68 61 60 64 68 68 61
63 63 70 73 70 64 61 66 68 65 59 52 50 49 46 45 43 39 35 32 29 28 28 28 26 24 22 20 19 22 26 27 27 27 29 33 38 40 41 40 41 42 42 44 47 49 51 52 53 53 52 52 53 55 60 67 70 70 70 72 74 76 75 76 75 77 78 76 75 74 73 72 72 72 71 69 68 70 71 69 63 60 62 66 67
57 59 67 66 59 57 60 64 65 58 49 44 44 44 43 42 40 38 36 34 32 31 30 28 26 23 21 18 19 23 27 29 28 27 27 28 31 33 34 35 36 36 36 37 40 42 44 46 47 49 50 50 53 56 60 64 67 69 70 70 73 75 74 74 74 75 78 78 78 77 75 74 73 73 71 70 70 70 72 75 74 69 63 60 60
52 56 60 57 54 59 62 60 55 48 41 39 41 41 41 40 40 40 38 37 35 33 31 29 26 23 21 19 18 20 25 29 30 29 28 27 28 28 29 30 30 31 32 34 37 38 38 39 40 43 46 49 53 57 59 61 62 63 69 72 71 71 72 74 77 78 78 78 77 76 75 74 74 74 74 72 71 71 72 74 76 76 72 67 63
46 50 52 52 55 60 62 57 51 44 38 37 39 40 40 40 42 43 41 39 36 34 34 33 30 27 24 21 18 19 22 26 28 28 27 25 24 23 23 23 24 26 26 29 32 32 32 34 36 38 41 44 49 54 56 61 62 57 62 70 70 70 71 73 76 77 78 78 76 74 73 74 75 75 75 75 73 73 74 73 72 72 75 78 77
41 42 46 49 53 57 58 56 51 45 38 36 37 39 41 42 45 45 43 40 37 35 35 35 33 29 25 22 20 19 22 26 26 26 25 24 23 22 23 24 25 25 25 25 27 28 27 28 30 32 35 37 42 49 53 60 65 63 64 70 70 71 71 70 72 73 74 75 73 74 74 74 75 75 75 74 72 74 76 78 77 73 71 78 82
40 40 43 46 50 54 55 54 50 44 38 38 39 38 39 42 45 46 44 41 37 34 34 34 33 29 25 22 20 18 21 25 25 25 26 26 26 26 27 27 27 27 26 26 27 27 28 27 27 28 30 32 36 45 52 57 61 62 66 68 69 72 69 63 64 64 65 68 69 71 72 72 73 72 73 73 74 76 80 83 84 81 77 78 81
42 42 42 43 47 51 52 52 48 42 39 41 42 41 39 40 42 43 41 39 36 34 34 36 35 32 27 21 19 19 21 24 25 26 27 28 29 29 28 28 28 28 27 27 27 26 27 28 28 28 29 30 31 37 46 52 53 53 57 58 61 65 61 55 57 59 60 62 63 64 67 67 67 69 69 72 75 78 83 84 85 87 86 85 84
45 46 46 44 46 51 51 49 46 40 39 43 46 45 43 41 41 40 40 40 38 35 36 38 37 33 27 22 21 22 23 25 26 26 27 28 28 28 28 27 27 27 26 26 26 24 24 28 29 29 30 30 30 31 35 42 45 45 48 49 50 52 50 48 52 56 58 58 58 59 61 61 63 67 70 70 74 79 82 82 82 83 84 86 87
50 48 47 45 47 52 50 50 48 40 38 43 45 45 44 43 43 41 42 43 42 38 38 37 35 32 28 24 23 25 27 27 26 26 25 26 26 24 24 25 25 25 22 21 22 22 24 28 28 28 29 28 29 30 31 36 39 42 47 49 48 51 53 50 48 49 51 52 54 57 59 61 63 67 70 70 73 79 80 78 76 76 77 80 84
50 49 50 50 51 53 52 52 51 42 39 43 44 45 45 45 46 46 46 46 44 43 43 39 36 34 31 26 24 25 26 26 25 25 24 24 23 21 21 23 21 19 16 15 17 20 25 28 25 25 26 25 28 29 30 33 34 40 49 51 53 58 60 57 54 57 61 58 57 59 61 63 66 68 70 72 74 78 78 74 72 72 73 76 81
51 53 58 61 60 60 59 56 54 48 43 43 45 46 46 47 49 50 50 49 47 48 47 43 39 39 35 30 26 24 23 21 21 22 23 23 20 18 19 18 17 15 15 14 15 18 23 24 20 20 20 19 23 26 27 29 28 30 36 38 43 48 48 49 50 57 66 65 60 62 62 62 63 63 66 69 70 70 70 69 67 65 65 66 72
57 61 66 69 67 65 64 60 57 53 45 43 45 45 48 52 54 54 53 54 53 49 46 45 44 44 40 33 28 25 22 21 20 21 21 20 17 16 16 16 15 16 15 15 15 15 16 16 15 15 14 13 17 19 20 24 25 23 23 24 29 33 33 35 38 43 51 55 57 59 59 57 57 57 58 59 58 58 59 61 61 58 55 56 61